{"data":{"norad_id":59411,"epoch":"2026-09-21T15:32:51.650592Z","epoch_age_seconds":66413,"freshness":"FRESH","line1":"1 59411U 24064P   26264.64782003  .00000794  00000+0  38355-4 0  9993","line2":"2 59411  43.0022  29.6240 0000849 260.5485  99.5271 15.27582975139194","mean_motion":15.27582975,"eccentricity":8.49e-5,"inclination_deg":43.0022,"raan_deg":29.624,"arg_perigee_deg":260.5485,"mean_anomaly_deg":99.5271,"bstar":3.8355e-5,"rev_number":13919,"period_min":94.266565127174,"perigee_km":482.45767389061,"apogee_km":483.62270177711,"semimajor_km":6861.1771878339,"source":"CELESTRAK","updated_at":"2026-09-22T09:00:48.916214Z"}}